Hourly Data Report for October 05, 2017

All times are specified in Local Standard Time (LST). Add 1 hour to adjust for Daylight Saving Time where and when it is observed.

SANDSPIT
BRITISH COLUMBIA

53°15'15.000" N
131°48'50.000" W
6.40 m
1057052
71111
YZP

Related Data

No related data is available for this station

Download Data

Hourly Data (October 2017)
Hourly Data Report for October 5, 2017
Temp Definition
°C
Dew Point Temp Definition
°C
Rel Hum Definition
%
Wind Dir Definition
10's deg

Wind Spd Definition
km/h
Visibility Definition
km
Stn Press Definition
kPa
Hmdx Definition


Wind Chill Definition


Weather Definition


TIME
00:00 Legend Double Dagger 8.5 7.4 93 25 5 16.1 102.05     LegendNANA
01:00 Legend Double Dagger 9.3 7.5 88 25 9 16.1 102.06     LegendNANA
02:00 Legend Double Dagger 7.8 7.5 98 18 5 16.1 102.02     LegendNANA
03:00 Legend Double Dagger 9.4 9.4 100 17 9 16.1 102.01     LegendNANA
04:00 Legend Double Dagger 6.9 6.9 100 14 9 1.6 101.99     Fog
05:00 Legend Double Dagger 7.2 7.2 100 23 11 16.1 101.97     LegendNANA
06:00 Legend Double Dagger 7.3 7.2 99 16 13 16.1 101.92     LegendNANA
07:00 Legend Double Dagger 8.5 7.6 94 17 9 16.1 101.93     LegendNANA
08:00 Legend Double Dagger 9.4 8.3 93 15 8 9.7 101.93     Rain,Fog
09:00 Legend Double Dagger 11.0 9.5 91 14 15 16.1 101.88     LegendNANA
10:00 Legend Double Dagger 11.7 9.4 86 17 17 16.1 101.79     LegendNANA
11:00 Legend Double Dagger 12.6 9.6 82 14 11 16.1 101.82     LegendNANA
12:00 Legend Double Dagger 14.0 12.2 89 15 21 16.1 101.73     LegendNANA
13:00 Legend Double Dagger 14.1 12.8 92 15 21 16.1 101.70     LegendNANA
14:00 Legend Double Dagger 14.1 13.5 96 30 5 6.4 101.64     Rain,Fog
15:00 Legend Double Dagger 13.3 11.8 91 25 32 16.1 101.63     LegendNANA
16:00 Legend Double Dagger 12.9 10.6 86 25 28 16.1 101.63     LegendNANA
17:00 Legend Double Dagger 13.1 9.0 76 24 17 16.1 101.57     LegendNANA
18:00 Legend Double Dagger 12.5 7.6 72 19 11 16.1 101.45     LegendNANA
19:00 Legend Double Dagger 10.9 8.2 83 18 13 16.1 101.39     LegendNANA
20:00 Legend Double Dagger 12.6 7.3 70 21 18 16.1 101.32     LegendNANA
21:00 Legend Double Dagger 12.3 7.6 73 19 11 16.1 101.25     LegendNANA
22:00 Legend Double Dagger 11.9 8.3 78 18 17 16.1 101.11     Rain
23:00 Legend Double Dagger 10.7 9.5 92 17 18 16.1 101.02     Rain

Notes on Data Quality.

Legend

  • E = Estimated
  • M = Missing
  • NA = Not Available
  • ‡ = Partner data that is not subject to review by the National Climate Archives
Date modified: